| time (UTC) | temp C | wind direction | speed KPH | gust KPH | rain 1hr cm | rain 24hr cm | rain mn cm | humidity % | barometer mb |
| 20260904101532 | 13 | 206 | 0.0 | 3.2 | 0.00 | 0.00 | 0.00 | 58 | 1015.6 |
| 20260904101021 | 13 | 207 | 0.0 | 3.2 | 0.00 | 0.00 | 0.00 | 59 | 1015.6 |
| 20260904100515 | 13 | 207 | 0.0 | 3.2 | 0.00 | 0.00 | 0.00 | 60 | 1015.6 |
| 20260904100031 | 14 | 181 | 0.0 | 3.2 | 0.00 | 0.00 | 0.00 | 58 | 1015.6 |
| 20260904095507 | 14 | 181 | 0.0 | 3.2 | 0.00 | 0.00 | 0.00 | 58 | 1015.6 |
| 20260904095007 | 14 | 181 | 0.0 | 3.2 | 0.00 | 0.00 | 0.00 | 59 | 1015.6 |
| 20260904094516 | 14 | 181 | 0.0 | 3.2 | 0.00 | 0.00 | 0.00 | 58 | 1015.6 |
| 20260904094012 | 15 | 181 | 0.0 | 3.2 | 0.00 | 0.00 | 0.00 | 58 | 1015.5 |
| 20260904093513 | 15 | 181 | 0.0 | 3.2 | 0.00 | 0.00 | 0.00 | 59 | 1015.6 |
| 20260904090026 | 16 | 182 | 0.0 | 3.2 | 0.00 | 0.00 | 0.00 | 53 | 1015.3 |
| 20260904085514 | 16 | 182 | 0.0 | 3.2 | 0.00 | 0.00 | 0.00 | 53 | 1015.2 |
| 20260904085020 | 16 | 157 | 0.0 | 3.2 | 0.00 | 0.00 | 0.00 | 53 | 1015.3 |
| 20260904084530 | 16 | 164 | 0.0 | 3.2 | 0.00 | 0.00 | 0.00 | 52 | 1015.4 |
| 20260904084018 | 16 | 185 | 1.6 | 3.2 | 0.00 | 0.00 | 0.00 | 52 | 1015.3 |
| 20260904083507 | 16 | 189 | 0.0 | 3.2 | 0.00 | 0.00 | 0.00 | 51 | 1015.3 |
| 20260904083018 | 17 | 189 | 0.0 | 3.2 | 0.00 | 0.00 | 0.00 | 52 | 1015.3 |
| 20260904082511 | 17 | 189 | 0.0 | 3.2 | 0.00 | 0.00 | 0.00 | 52 | 1015.3 |
| 20260904082012 | 17 | 323 | 0.0 | 3.2 | 0.00 | 0.00 | 0.00 | 52 | 1015.3 |
| 20260904081526 | 17 | 323 | 0.0 | 3.2 | 0.00 | 0.00 | 0.00 | 51 | 1015.3 |
| 20260904081016 | 17 | 325 | 0.0 | 3.2 | 0.00 | 0.00 | 0.00 | 50 | 1015.2 |
| 20260904080516 | 17 | 322 | 0.0 | 3.2 | 0.00 | 0.00 | 0.00 | 49 | 1015.2 |
| 20260904080050 | 17 | 327 | 0.0 | 3.2 | 0.00 | 0.00 | 0.00 | 50 | 1015.2 |
| 20260904075506 | 18 | 352 | 0.0 | 3.2 | 0.00 | 0.00 | 0.00 | 49 | 1015.2 |
| 20260904075008 | 17 | 9 | 1.6 | 3.2 | 0.00 | 0.00 | 0.00 | 45 | 1015.2 |
| 20260904074526 | 17 | 53 | 0.0 | 3.2 | 0.00 | 0.00 | 0.00 | 47 | 1015.2 |
| 20260904074014 | 17 | 53 | 0.0 | 3.2 | 0.00 | 0.00 | 0.00 | 47 | 1015.2 |
| 20260904073512 | 17 | 31 | 0.0 | 3.2 | 0.00 | 0.00 | 0.00 | 46 | 1015.3 |
| 20260904073032 | 17 | 95 | 0.0 | 3.2 | 0.00 | 0.00 | 0.00 | 47 | 1015.4 |
| 20260904072519 | 18 | 100 | 0.0 | 3.2 | 0.00 | 0.00 | 0.00 | 46 | 1015.4 |
| 20260904072018 | 18 | 100 | 0.0 | 3.2 | 0.00 | 0.00 | 0.00 | 46 | 1015.4 |
| 20260904071511 | 18 | 121 | 0.0 | 3.2 | 0.00 | 0.00 | 0.00 | 45 | 1015.4 |
| 20260904071008 | 18 | 119 | 0.0 | 3.2 | 0.00 | 0.00 | 0.00 | 45 | 1015.4 |
| 20260904070506 | 18 | 119 | 0.0 | 3.2 | 0.00 | 0.00 | 0.00 | 45 | 1015.5 |
| 20260904070009 | 18 | 113 | 0.0 | 3.2 | 0.00 | 0.00 | 0.00 | 44 | 1015.6 |
| 20260904065504 | 19 | 236 | 0.0 | 3.2 | 0.00 | 0.00 | 0.00 | 43 | 1015.5 |
| 20260904065003 | 19 | 298 | 0.0 | 3.2 | 0.00 | 0.00 | 0.00 | 43 | 1015.5 |
| 20260904064507 | 20 | 61 | 0.0 | 3.2 | 0.00 | 0.00 | 0.00 | 42 | 1015.6 |
| 20260904064010 | 20 | 258 | 0.0 | 3.2 | 0.00 | 0.00 | 0.00 | 41 | 1015.4 |
| 20260904063508 | 20 | 233 | 1.6 | 3.2 | 0.00 | 0.00 | 0.00 | 41 | 1015.4 |
| 20260904063018 | 20 | 59 | 0.0 | 3.2 | 0.00 | 0.00 | 0.00 | 40 | 1015.4 |
| 20260904062503 | 20 | 84 | 0.0 | 3.2 | 0.00 | 0.00 | 0.00 | 40 | 1015.5 |
| 20260904062002 | 20 | 95 | 0.0 | 3.2 | 0.00 | 0.00 | 0.00 | 41 | 1015.4 |
| 20260904061503 | 20 | 101 | 0.0 | 8.0 | 0.00 | 0.00 | 0.00 | 41 | 1015.4 |
| 20260904061003 | 21 | 119 | 1.6 | 8.0 | 0.00 | 0.00 | 0.00 | 42 | 1015.4 |
| 20260904060503 | 21 | 112 | 1.6 | 6.4 | 0.00 | 0.00 | 0.00 | 43 | 1015.4 |
| 20260904060012 | 21 | 104 | 0.0 | 3.2 | 0.00 | 0.00 | 0.00 | 40 | 1015.1 |
| 20260904055512 | 22 | 144 | 0.0 | 3.2 | 0.00 | 0.00 | 0.00 | 37 | 1014.9 |
| 20260904055011 | 22 | 235 | 0.0 | 3.2 | 0.00 | 0.00 | 0.00 | 34 | 1014.8 |
| 20260904054508 | 23 | 285 | 0.0 | 4.8 | 0.00 | 0.00 | 0.00 | 32 | 1014.7 |
| 20260904054003 | 23 | 309 | 0.0 | 4.8 | 0.00 | 0.00 | 0.00 | 32 | 1014.6 |
| 20260904053503 | 23 | 227 | 0.0 | 3.2 | 0.00 | 0.00 | 0.00 | 32 | 1014.7 |
| 20260904053007 | 23 | 241 | 0.0 | 11.3 | 0.00 | 0.00 | 0.00 | 31 | 1014.7 |
| 20260904052506 | 23 | 348 | 0.0 | 11.3 | 0.00 | 0.00 | 0.00 | 31 | 1014.7 |
| 20260904052006 | 23 | 273 | 0.0 | 4.8 | 0.00 | 0.00 | 0.00 | 32 | 1014.7 |
| 20260904051520 | 23 | 306 | 0.0 | 4.8 | 0.00 | 0.00 | 0.00 | 31 | 1014.7 |
| 20260904051011 | 23 | 263 | 0.0 | 4.8 | 0.00 | 0.00 | 0.00 | 31 | 1014.6 |
| 20260904050502 | 23 | 257 | 0.0 | 4.8 | 0.00 | 0.00 | 0.00 | 31 | 1014.5 |
| 20260904050006 | 23 | 5 | 1.6 | 3.2 | 0.00 | 0.00 | 0.00 | 31 | 1014.5 |
| 20260904045504 | 23 | 336 | 0.0 | 4.8 | 0.00 | 0.00 | 0.00 | 31 | 1014.5 |
| 20260904045004 | 23 | 225 | 1.6 | 4.8 | 0.00 | 0.00 | 0.00 | 31 | 1014.6 |
| 20260904044511 | 23 | 243 | 0.0 | 3.2 | 0.00 | 0.00 | 0.00 | 31 | 1014.6 |
| 20260904044007 | 24 | 287 | 0.0 | 3.2 | 0.00 | 0.00 | 0.00 | 31 | 1014.6 |
| 20260904043507 | 24 | 173 | 0.0 | 3.2 | 0.00 | 0.00 | 0.00 | 31 | 1014.7 |
| 20260904043024 | 24 | 285 | 0.0 | 3.2 | 0.00 | 0.00 | 0.00 | 31 | 1014.7 |
| 20260904042506 | 24 | 216 | 0.0 | 3.2 | 0.00 | 0.00 | 0.00 | 31 | 1014.7 |
| 20260904042003 | 24 | 285 | 1.6 | 4.8 | 0.00 | 0.00 | 0.00 | 31 | 1014.7 |
| 20260904041504 | 24 | 205 | 1.6 | 4.8 | 0.00 | 0.00 | 0.00 | 31 | 1014.6 |
| 20260904041004 | 24 | 236 | 0.0 | 4.8 | 0.00 | 0.00 | 0.00 | 31 | 1014.6 |
| 20260904040508 | 24 | 271 | 1.6 | 4.8 | 0.00 | 0.00 | 0.00 | 31 | 1014.7 |
| 20260904040014 | 24 | 349 | 1.6 | 3.2 | 0.00 | 0.00 | 0.00 | 31 | 1014.7 |
| 20260904035513 | 24 | 266 | 0.0 | 3.2 | 0.00 | 0.00 | 0.00 | 31 | 1014.8 |
| 20260904035013 | 24 | 236 | 1.6 | 4.8 | 0.00 | 0.00 | 0.00 | 31 | 1014.9 |
| 20260904034503 | 24 | 331 | 0.0 | 4.8 | 0.00 | 0.00 | 0.00 | 31 | 1015.0 |
| 20260904034003 | 24 | 323 | 0.0 | 3.2 | 0.00 | 0.00 | 0.00 | 31 | 1014.9 |
| 20260904033503 | 24 | 244 | 0.0 | 3.2 | 0.00 | 0.00 | 0.00 | 31 | 1015.0 |
| 20260904033017 | 24 | 305 | 0.0 | 3.2 | 0.00 | 0.00 | 0.00 | 31 | 1014.9 |
| 20260904032506 | 24 | 323 | 0.0 | 3.2 | 0.00 | 0.00 | 0.00 | 31 | 1014.9 |
| 20260904032009 | 24 | 286 | 0.0 | 3.2 | 0.00 | 0.00 | 0.00 | 31 | 1015.0 |
| 20260904031520 | 24 | 284 | 0.0 | 3.2 | 0.00 | 0.00 | 0.00 | 32 | 1015.0 |
| 20260904031014 | 25 | 344 | 0.0 | 3.2 | 0.00 | 0.00 | 0.00 | 33 | 1015.0 |
| 20260904030504 | 25 | 292 | 0.0 | 3.2 | 0.00 | 0.00 | 0.00 | 32 | 1014.9 |
| 20260904030004 | 25 | 331 | 0.0 | 3.2 | 0.00 | 0.00 | 0.00 | 32 | 1014.9 |
| 20260904025503 | 25 | 273 | 0.0 | 3.2 | 0.00 | 0.00 | 0.00 | 32 | 1014.8 |
| 20260904025006 | 25 | 295 | 0.0 | 3.2 | 0.00 | 0.00 | 0.00 | 33 | 1014.7 |
| 20260904024510 | 25 | 326 | 0.0 | 3.2 | 0.00 | 0.00 | 0.00 | 33 | 1014.7 |
| 20260904024012 | 25 | 329 | 0.0 | 3.2 | 0.00 | 0.00 | 0.00 | 32 | 1014.7 |
| 20260904023512 | 25 | 317 | 0.0 | 3.2 | 0.00 | 0.00 | 0.00 | 32 | 1014.7 |
| 20260904023026 | 25 | 261 | 0.0 | 4.8 | 0.00 | 0.00 | 0.00 | 32 | 1014.6 |
| 20260904022503 | 25 | 261 | 0.0 | 4.8 | 0.00 | 0.00 | 0.00 | 32 | 1014.5 |
| 20260904022004 | 25 | 352 | 0.0 | 3.2 | 0.00 | 0.00 | 0.00 | 32 | 1014.5 |
| 20260904021504 | 26 | 352 | 0.0 | 3.2 | 0.00 | 0.00 | 0.00 | 32 | 1014.5 |
| 20260904021009 | 26 | 352 | 0.0 | 3.2 | 0.00 | 0.00 | 0.00 | 31 | 1014.5 |
| 20260904020512 | 26 | 352 | 0.0 | 3.2 | 0.00 | 0.00 | 0.00 | 31 | 1014.5 |
| 20260904020018 | 26 | 352 | 0.0 | 3.2 | 0.00 | 0.00 | 0.00 | 31 | 1014.5 |
| 20260904015517 | 27 | 352 | 0.0 | 3.2 | 0.00 | 0.00 | 0.00 | 30 | 1014.4 |
| 20260904015019 | 27 | 331 | 0.0 | 3.2 | 0.00 | 0.00 | 0.00 | 29 | 1014.3 |
| 20260904014503 | 27 | 346 | 0.0 | 3.2 | 0.00 | 0.00 | 0.00 | 28 | 1014.3 |
| 20260904014003 | 27 | 352 | 0.0 | 8.0 | 0.00 | 0.00 | 0.00 | 27 | 1014.3 |
| 20260904013504 | 27 | 337 | 1.6 | 8.0 | 0.00 | 0.00 | 0.00 | 27 | 1014.3 |
| 20260904013010 | 27 | 37 | 3.2 | 8.0 | 0.00 | 0.00 | 0.00 | 26 | 1014.3 |
| 20260904012511 | 28 | 345 | 1.6 | 8.0 | 0.00 | 0.00 | 0.00 | 26 | 1014.3 |
| 20260904012011 | 28 | 54 | 1.6 | 8.0 | 0.00 | 0.00 | 0.00 | 25 | 1014.2 |
| 20260904011527 | 28 | 30 | 0.0 | 6.4 | 0.00 | 0.00 | 0.00 | 25 | 1014.2 |
| 20260904011018 | 28 | 19 | 0.0 | 4.8 | 0.00 | 0.00 | 0.00 | 24 | 1014.2 |
| 20260904010502 | 28 | 5 | 1.6 | 4.8 | 0.00 | 0.00 | 0.00 | 23 | 1014.2 |
| 20260904010011 | 29 | 321 | 0.0 | 8.0 | 0.00 | 0.00 | 0.00 | 23 | 1014.2 |
| 20260904005507 | 29 | 10 | 1.6 | 8.0 | 0.00 | 0.00 | 0.00 | 23 | 1014.2 |
| 20260904005008 | 30 | 360 | 0.0 | 4.8 | 0.00 | 0.00 | 0.00 | 22 | 1014.2 |
| 20260904004515 | 30 | 350 | 1.6 | 4.8 | 0.00 | 0.00 | 0.00 | 22 | 1014.1 |
| 20260904004010 | 30 | 28 | 1.6 | 4.8 | 0.00 | 0.00 | 0.00 | 22 | 1014.0 |
| 20260904003514 | 30 | 22 | 1.6 | 4.8 | 0.00 | 0.00 | 0.00 | 22 | 1013.9 |
| 20260904003027 | 30 | 9 | 1.6 | 8.0 | 0.00 | 0.00 | 0.00 | 23 | 1014.0 |
| 20260904002503 | 30 | 57 | 3.2 | 8.0 | 0.00 | 0.00 | 0.00 | 22 | 1013.9 |
| 20260904002004 | 30 | 32 | 1.6 | 8.0 | 0.00 | 0.00 | 0.00 | 22 | 1014.0 |
| 20260904001510 | 31 | 46 | 3.2 | 9.7 | 0.00 | 0.00 | 0.00 | 21 | 1013.9 |
| 20260904001007 | 31 | 67 | 3.2 | 9.7 | 0.00 | 0.00 | 0.00 | 21 | 1013.9 |
| 20260904000511 | 31 | 37 | 4.8 | 12.9 | 0.00 | 0.00 | 0.00 | 21 | 1013.8 |
| 20260904000020 | 31 | 80 | 4.8 | 14.5 | 0.00 | 0.00 | 0.00 | 21 | 1013.8 |
| 20260903235513 | 31 | 32 | 4.8 | 19.3 | 0.00 | 0.00 | 0.00 | 21 | 1013.8 |
| 20260903235014 | 32 | 52 | 4.8 | 19.3 | 0.00 | 0.00 | 0.00 | 21 | 1013.8 |
| 20260903234502 | 32 | 38 | 6.4 | 17.7 | 0.00 | 0.00 | 0.00 | 21 | 1013.8 |
| 20260903234006 | 33 | 97 | 3.2 | 12.9 | 0.00 | 0.00 | 0.00 | 20 | 1013.8 |
| 20260903233510 | 33 | 352 | 1.6 | 4.8 | 0.00 | 0.00 | 0.00 | 19 | 1013.8 |
| 20260903233029 | 33 | 154 | 0.0 | 6.4 | 0.00 | 0.00 | 0.00 | 18 | 1013.8 |
| 20260903232510 | 33 | 78 | 1.6 | 9.7 | 0.00 | 0.00 | 0.00 | 19 | 1013.8 |
| 20260903232012 | 35 | 71 | 3.2 | 9.7 | 0.00 | 0.00 | 0.00 | 17 | 1013.8 |
| 20260903231539 | 35 | 151 | 0.0 | 3.2 | 0.00 | 0.00 | 0.00 | 18 | 1013.8 |
| 20260903231014 | 34 | 300 | 0.0 | 3.2 | 0.00 | 0.00 | 0.00 | 18 | 1013.8 |
| 20260903230503 | 33 | 142 | 0.0 | 4.8 | 0.00 | 0.00 | 0.00 | 19 | 1013.8 |
| 20260903230006 | 33 | 59 | 1.6 | 4.8 | 0.00 | 0.00 | 0.00 | 18 | 1013.8 |
| 20260903225511 | 33 | 91 | 1.6 | 4.8 | 0.00 | 0.00 | 0.00 | 18 | 1013.8 |
| 20260903225009 | 33 | 314 | 1.6 | 4.8 | 0.00 | 0.00 | 0.00 | 17 | 1013.9 |
| 20260903224520 | 33 | 86 | 0.0 | 11.3 | 0.00 | 0.00 | 0.00 | 19 | 1013.9 |
| 20260903224014 | 33 | 48 | 1.6 | 11.3 | 0.00 | 0.00 | 0.00 | 18 | 1014.0 |
| 20260903223518 | 33 | 347 | 1.6 | 14.5 | 0.00 | 0.00 | 0.00 | 19 | 1013.9 |
| 20260903223033 | 33 | 24 | 1.6 | 14.5 | 0.00 | 0.00 | 0.00 | 1014.0 | |
| 20260903222508 | 33 | 63 | 4.8 | 14.5 | 0.00 | 0.00 | 0.00 | 1014.0 | |
| 20260903222009 | 33 | 69 | 3.2 | 9.7 | 0.00 | 0.00 | 0.00 | 1014.2 | |
| 20260903221510 | 33 | 88 | 1.6 | 9.7 | 0.00 | 0.00 | 0.00 | 19 | 1014.3 |
| 20260903221014 | 33 | 40 | 3.2 | 8.0 | 0.00 | 0.00 | 0.00 | 19 | 1014.4 |
| 20260903220512 | 33 | 91 | 1.6 | 9.7 | 0.00 | 0.00 | 0.00 | 18 | 1014.4 |
| 20260903220036 | 33 | 74 | 4.8 | 9.7 | 0.00 | 0.00 | 0.00 | 18 | 1014.4 |
| 20260903215514 | 33 | 40 | 1.6 | 6.4 | 0.00 | 0.00 | 0.00 | 18 | 1014.5 |
| 20260903215018 | 33 | 74 | 1.6 | 6.4 | 0.00 | 0.00 | 0.00 | 18 | 1014.5 |
| 20260903214507 | 33 | 115 | 3.2 | 9.7 | 0.00 | 0.00 | 0.00 | 19 | 1014.6 |
| 20260903214006 | 32 | 138 | 3.2 | 9.7 | 0.00 | 0.00 | 0.00 | 20 | 1014.6 |
| 20260903213510 | 32 | 42 | 3.2 | 6.4 | 0.00 | 0.00 | 0.00 | 1014.5 | |
| 20260903213016 | 32 | 178 | 1.6 | 11.3 | 0.00 | 0.00 | 0.00 | 1014.6 | |
| 20260903212514 | 32 | 74 | 3.2 | 11.3 | 0.00 | 0.00 | 0.00 | 1014.6 | |
| 20260903212017 | 32 | 46 | 1.6 | 9.7 | 0.00 | 0.00 | 0.00 | 1014.6 | |
| 20260903211542 | 32 | 92 | 3.2 | 19.3 | 0.00 | 0.00 | 0.00 | 1014.6 | |
| 20260903211016 | 32 | 140 | 3.2 | 19.3 | 0.00 | 0.00 | 0.00 | 1014.7 | |
| 20260903210505 | 32 | 126 | 1.6 | 17.7 | 0.00 | 0.00 | 0.00 | 19 | 1014.7 |
| 20260903210013 | 32 | 56 | 3.2 | 19.3 | 0.00 | 0.00 | 0.00 | 19 | 1014.7 |
| 20260903205508 | 32 | 78 | 6.4 | 19.3 | 0.00 | 0.00 | 0.00 | 19 | 1014.7 |
| 20260903205011 | 32 | 73 | 3.2 | 8.0 | 0.00 | 0.00 | 0.00 | 20 | 1014.9 |
| 20260903204523 | 32 | 24 | 1.6 | 6.4 | 0.00 | 0.00 | 0.00 | 20 | 1014.9 |
| 20260903204018 | 32 | 74 | 0.0 | 12.9 | 0.00 | 0.00 | 0.00 | 20 | 1014.9 |
| 20260903203517 | 31 | 198 | 3.2 | 16.1 | 0.00 | 0.00 | 0.00 | 21 | 1015.0 |
| 20260903203034 | 31 | 79 | 3.2 | 16.1 | 0.00 | 0.00 | 0.00 | 20 | 1015.0 |
| 20260903202504 | 31 | 56 | 3.2 | 17.7 | 0.00 | 0.00 | 0.00 | 21 | 1015.0 |
| 20260903202010 | 31 | 112 | 4.8 | 17.7 | 0.00 | 0.00 | 0.00 | 21 | 1015.0 |
| 20260903201516 | 31 | 352 | 3.2 | 11.3 | 0.00 | 0.00 | 0.00 | 22 | 1015.1 |
| 20260903201013 | 31 | 25 | 1.6 | 16.1 | 0.00 | 0.00 | 0.00 | 22 | 1015.2 |
| 20260903200516 | 31 | 360 | 6.4 | 16.1 | 0.00 | 0.00 | 0.00 | 22 | 1015.3 |
| 20260903200027 | 32 | 36 | 4.8 | 8.0 | 0.00 | 0.00 | 0.00 | 21 | 1015.4 |
| 20260903195517 | 31 | 121 | 1.6 | 14.5 | 0.00 | 0.00 | 0.00 | 22 | 1015.5 |
| 20260903195015 | 31 | 102 | 4.8 | 14.5 | 0.00 | 0.00 | 0.00 | 21 | 1015.6 |
| 20260903194510 | 31 | 29 | 6.4 | 14.5 | 0.00 | 0.00 | 0.00 | 22 | 1015.6 |
| 20260903194007 | 31 | 26 | 3.2 | 16.1 | 0.00 | 0.00 | 0.00 | 22 | 1015.6 |
| 20260903193509 | 31 | 164 | 6.4 | 16.1 | 0.00 | 0.00 | 0.00 | 22 | 1015.6 |
| 20260903193023 | 31 | 142 | 3.2 | 12.9 | 0.00 | 0.00 | 0.00 | 22 | 1015.7 |
| 20260903192516 | 31 | 140 | 4.8 | 12.9 | 0.00 | 0.00 | 0.00 | 22 | 1015.7 |
| 20260903192017 | 31 | 15 | 3.2 | 9.7 | 0.00 | 0.00 | 0.00 | 22 | 1015.8 |
| 20260903191533 | 31 | 111 | 3.2 | 11.3 | 0.00 | 0.00 | 0.00 | 21 | 1015.9 |
| 20260903191016 | 31 | 109 | 1.6 | 11.3 | 0.00 | 0.00 | 0.00 | 21 | 1015.8 |
| 20260903190507 | 31 | 102 | 3.2 | 11.3 | 0.00 | 0.00 | 0.00 | 22 | 1015.9 |
| 20260903190012 | 31 | 109 | 3.2 | 8.0 | 0.00 | 0.00 | 0.00 | 22 | 1015.9 |
| 20260903185511 | 31 | 185 | 3.2 | 11.3 | 0.00 | 0.00 | 0.00 | 22 | 1016.1 |
| 20260903185015 | 31 | 59 | 1.6 | 11.3 | 0.00 | 0.00 | 0.00 | 21 | 1016.1 |
| 20260903184528 | 31 | 58 | 3.2 | 14.5 | 0.00 | 0.00 | 0.00 | 22 | 1016.1 |
| 20260903184004 | 31 | 148 | 1.6 | 14.5 | 0.00 | 0.00 | 0.00 | 22 | 1016.2 |
| 20260903183506 | 31 | 119 | 3.2 | 8.0 | 0.00 | 0.00 | 0.00 | 23 | 1016.2 |
| 20260903183008 | 31 | 15 | 1.6 | 9.7 | 0.00 | 0.00 | 0.00 | 22 | 1016.3 |
| 20260903182508 | 30 | 141 | 4.8 | 12.9 | 0.00 | 0.00 | 0.00 | 22 | 1016.3 |
| 20260903182008 | 30 | 46 | 1.6 | 16.1 | 0.00 | 0.00 | 0.00 | 23 | 1016.4 |
| 20260903181522 | 30 | 134 | 3.2 | 16.1 | 0.00 | 0.00 | 0.00 | 24 | 1016.5 |
| 20260903181012 | 30 | 114 | 1.6 | 9.7 | 0.00 | 0.00 | 0.00 | 22 | 1016.6 |
| 20260903180514 | 30 | 132 | 3.2 | 9.7 | 0.00 | 0.00 | 0.00 | 24 | 1016.7 |
| 20260903180003 | 30 | 58 | 3.2 | 12.9 | 0.00 | 0.00 | 0.00 | 24 | 1016.8 |
| 20260903175505 | 30 | 137 | 4.8 | 12.9 | 0.00 | 0.00 | 0.00 | 24 | 1016.8 |
| 20260903175007 | 30 | 30 | 1.6 | 11.3 | 0.00 | 0.00 | 0.00 | 23 | 1016.9 |
| 20260903174517 | 30 | 111 | 3.2 | 9.7 | 0.00 | 0.00 | 0.00 | 24 | 1017.0 |
| 20260903174014 | 30 | 138 | 3.2 | 8.0 | 0.00 | 0.00 | 0.00 | 24 | 1017.1 |
| 20260903173531 | 30 | 205 | 1.6 | 12.9 | 0.00 | 0.00 | 0.00 | 26 | 1017.1 |
| 20260903173028 | 30 | 159 | 1.6 | 14.5 | 0.00 | 0.00 | 0.00 | 24 | 1017.0 |
| 20260903172518 | 30 | 80 | 1.6 | 14.5 | 0.00 | 0.00 | 0.00 | 25 | 1017.1 |
| 20260903172003 | 30 | 219 | 1.6 | 9.7 | 0.00 | 0.00 | 0.00 | 26 | 1017.1 |
| 20260903171507 | 30 | 51 | 3.2 | 9.7 | 0.00 | 0.00 | 0.00 | 24 | 1017.1 |
| 20260903171007 | 30 | 242 | 1.6 | 9.7 | 0.00 | 0.00 | 0.00 | 24 | 1017.0 |
| 20260903170510 | 30 | 190 | 1.6 | 11.3 | 0.00 | 0.00 | 0.00 | 24 | 1017.0 |
| 20260903170029 | 30 | 27 | 3.2 | 11.3 | 0.00 | 0.00 | 0.00 | 24 | 1017.1 |
| 20260903165511 | 30 | 211 | 1.6 | 9.7 | 0.00 | 0.00 | 0.00 | 23 | 1016.9 |
| 20260903165015 | 30 | 101 | 3.2 | 9.7 | 0.00 | 0.00 | 0.00 | 24 | 1017.0 |
| 20260903164529 | 30 | 70 | 1.6 | 9.7 | 0.00 | 0.00 | 0.00 | 25 | 1016.9 |
| 20260903164004 | 30 | 104 | 1.6 | 9.7 | 0.00 | 0.00 | 0.00 | 24 | 1016.9 |
| 20260903163508 | 30 | 144 | 1.6 | 11.3 | 0.00 | 0.00 | 0.00 | 24 | 1017.0 |
| 20260903163012 | 30 | 171 | 3.2 | 11.3 | 0.00 | 0.00 | 0.00 | 24 | 1017.0 |
| 20260903162513 | 29 | 117 | 1.6 | 9.7 | 0.00 | 0.00 | 0.00 | 25 | 1016.9 |
| 20260903162012 | 29 | 91 | 3.2 | 8.0 | 0.00 | 0.00 | 0.00 | 24 | 1017.0 |
| 20260903161526 | 28 | 94 | 3.2 | 8.0 | 0.00 | 0.00 | 0.00 | 25 | 1016.8 |
| 20260903161019 | 28 | 37 | 1.6 | 4.8 | 0.00 | 0.00 | 0.00 | 26 | 1016.8 |
| 20260903160518 | 28 | 134 | 1.6 | 6.4 | 0.00 | 0.00 | 0.00 | 26 | 1016.9 |
| 20260903160008 | 28 | 157 | 1.6 | 11.3 | 0.00 | 0.00 | 0.00 | 27 | 1016.8 |
| 20260903155507 | 27 | 253 | 0.0 | 11.3 | 0.00 | 0.00 | 0.00 | 27 | 1016.8 |
| 20260903155006 | 27 | 57 | 3.2 | 9.7 | 0.00 | 0.00 | 0.00 | 27 | 1017.0 |
| 20260903154515 | 27 | 267 | 1.6 | 4.8 | 0.00 | 0.00 | 0.00 | 27 | 1016.9 |
| 20260903154013 | 27 | 352 | 1.6 | 4.8 | 0.00 | 0.00 | 0.00 | 28 | 1017.0 |
| 20260903153513 | 27 | 242 | 1.6 | 4.8 | 0.00 | 0.00 | 0.00 | 28 | 1017.1 |
| 20260903153031 | 27 | 339 | 1.6 | 8.0 | 0.00 | 0.00 | 0.00 | 29 | 1017.1 |
| 20260903152515 | 27 | 352 | 3.2 | 8.0 | 0.00 | 0.00 | 0.00 | 28 | 1017.2 |
| 20260903152005 | 26 | 351 | 0.0 | 4.8 | 0.00 | 0.00 | 0.00 | 29 | 1017.2 |
| 20260903151511 | 26 | 277 | 1.6 | 6.4 | 0.00 | 0.00 | 0.00 | 31 | 1017.2 |
| 20260903151011 | 26 | 250 | 1.6 | 11.3 | 0.00 | 0.00 | 0.00 | 31 | 1017.3 |
| 20260903150511 | 26 | 299 | 3.2 | 12.9 | 0.00 | 0.00 | 0.00 | 31 | 1017.3 |
| 20260903150039 | 25 | 226 | 1.6 | 16.1 | 0.00 | 0.00 | 0.00 | 31 | 1017.4 |
| 20260903145515 | 25 | 284 | 3.2 | 17.7 | 0.00 | 0.00 | 0.00 | 32 | 1017.4 |
| 20260903145015 | 25 | 268 | 3.2 | 19.3 | 0.00 | 0.00 | 0.00 | 31 | 1017.5 |
| 20260903144532 | 24 | 244 | 8.0 | 17.7 | 0.00 | 0.00 | 0.00 | 32 | 1017.4 |
| 20260903144004 | 24 | 286 | 6.4 | 17.7 | 0.00 | 0.00 | 0.00 | 34 | 1017.4 |
| 20260903143508 | 23 | 221 | 3.2 | 17.7 | 0.00 | 0.00 | 0.00 | 35 | 1017.4 |
| 20260903143026 | 22 | 248 | 8.0 | 17.7 | 0.00 | 0.00 | 0.00 | 37 | 1017.4 |
| 20260903142510 | 20 | 233 | 4.8 | 16.1 | 0.00 | 0.00 | 0.00 | 54 | 1017.4 |
| 20260903142011 | 18 | 199 | 3.2 | 11.3 | 0.00 | 0.00 | 0.00 | 54 | 1017.4 |
| 20260903141530 | 18 | 222 | 1.6 | 3.2 | 0.00 | 0.00 | 0.00 | 55 | 1017.4 |
| 20260903141015 | 17 | 200 | 0.0 | 3.2 | 0.00 | 0.00 | 0.00 | 57 | 1017.4 |
| 20260903140518 | 17 | 300 | 1.6 | 6.4 | 0.00 | 0.00 | 0.00 | 60 | 1017.5 |
| 20260903140008 | 16 | 217 | 0.0 | 6.4 | 0.00 | 0.00 | 0.00 | 61 | 1017.5 |
| 20260903135511 | 16 | 40 | 0.0 | 3.2 | 0.00 | 0.00 | 0.00 | 61 | 1017.4 |
| 20260903135011 | 15 | 342 | 0.0 | 3.2 | 0.00 | 0.00 | 0.00 | 63 | 1017.4 |
| 20260903134522 | 15 | 229 | 0.0 | 3.2 | 0.00 | 0.00 | 0.00 | 63 | 1017.4 |
| 20260903134017 | 15 | 170 | 0.0 | 3.2 | 0.00 | 0.00 | 0.00 | 64 | 1017.2 |
| 20260903133517 | 14 | 223 | 1.6 | 3.2 | 0.00 | 0.00 | 0.00 | 68 | 1017.3 |
| 20260903133034 | 13 | 162 | 0.0 | 3.2 | 0.00 | 0.00 | 0.00 | 67 | 1017.2 |
| 20260903132519 | 13 | 155 | 0.0 | 3.2 | 0.00 | 0.00 | 0.00 | 69 | 1017.1 |
| 20260903132004 | 12 | 178 | 1.6 | 3.2 | 0.00 | 0.00 | 0.00 | 72 | 1017.2 |
| 20260903131511 | 12 | 186 | 0.0 | 3.2 | 0.00 | 0.00 | 0.00 | 72 | 1017.1 |
| 20260903131013 | 12 | 185 | 0.0 | 3.2 | 0.00 | 0.00 | 0.00 | 72 | 1017.2 |
| 20260903130512 | 12 | 185 | 0.0 | 3.2 | 0.00 | 0.00 | 0.00 | 72 | 1017.1 |
| 20260903130027 | 12 | 186 | 0.0 | 3.2 | 0.00 | 0.00 | 0.00 | 73 | 1017.1 |
| 20260903125516 | 12 | 186 | 0.0 | 3.2 | 0.00 | 0.00 | 0.00 | 72 | 1016.8 |
| 20260903125016 | 12 | 186 | 0.0 | 3.2 | 0.00 | 0.00 | 0.00 | 72 | 1016.8 |
| 20260903124508 | 12 | 186 | 0.0 | 3.2 | 0.00 | 0.00 | 0.00 | 71 | 1016.7 |
| 20260903124002 | 12 | 193 | 1.6 | 3.2 | 0.00 | 0.00 | 0.00 | 72 | 1016.7 |
| 20260903123502 | 12 | 200 | 0.0 | 3.2 | 0.00 | 0.00 | 0.00 | 72 | 1016.7 |
| 20260903123002 | 12 | 240 | 0.0 | 3.2 | 0.00 | 0.00 | 0.00 | 71 | 1016.6 |
| 20260903122502 | 12 | 192 | 0.0 | 3.2 | 0.00 | 0.00 | 0.00 | 71 | 1016.6 |
| 20260903122003 | 12 | 192 | 0.0 | 3.2 | 0.00 | 0.00 | 0.00 | 71 | 1016.5 |
| 20260903121504 | 12 | 192 | 0.0 | 3.2 | 0.00 | 0.00 | 0.00 | 70 | 1016.6 |
| 20260903121004 | 12 | 192 | 0.0 | 3.2 | 0.00 | 0.00 | 0.00 | 71 | 1016.6 |
| 20260903120502 | 12 | 208 | 0.0 | 3.2 | 0.00 | 0.00 | 0.00 | 71 | 1016.5 |
| 20260903120004 | 12 | 225 | 0.0 | 3.2 | 0.00 | 0.00 | 0.00 | 71 | 1016.5 |
| 20260903115501 | 12 | 191 | 0.0 | 3.2 | 0.00 | 0.00 | 0.00 | 71 | 1016.5 |
| 20260903115002 | 12 | 191 | 1.6 | 3.2 | 0.00 | 0.00 | 0.00 | 70 | 1016.5 |
| 20260903114503 | 12 | 195 | 1.6 | 3.2 | 0.00 | 0.00 | 0.00 | 71 | 1016.5 |
| 20260903114002 | 12 | 194 | 0.0 | 3.2 | 0.00 | 0.00 | 0.00 | 70 | 1016.5 |
| 20260903113504 | 12 | 194 | 0.0 | 3.2 | 0.00 | 0.00 | 0.00 | 70 | 1016.5 |
| 20260903113003 | 13 | 194 | 0.0 | 3.2 | 0.00 | 0.00 | 0.00 | 70 | 1016.4 |
| 20260903112503 | 13 | 194 | 0.0 | 3.2 | 0.00 | 0.00 | 0.00 | 70 | 1016.4 |
| 20260903112003 | 13 | 194 | 0.0 | 3.2 | 0.00 | 0.00 | 0.00 | 69 | 1016.4 |
| 20260903111503 | 13 | 180 | 1.6 | 3.2 | 0.00 | 0.00 | 0.00 | 69 | 1016.4 |
| 20260903111002 | 13 | 202 | 0.0 | 3.2 | 0.00 | 0.00 | 0.00 | 67 | 1016.4 |
| 20260903110503 | 13 | 202 | 0.0 | 3.2 | 0.00 | 0.00 | 0.00 | 68 | 1016.4 |
| 20260903110003 | 13 | 202 | 0.0 | 3.2 | 0.00 | 0.00 | 0.00 | 66 | 1016.4 |
| 20260903105503 | 13 | 202 | 0.0 | 3.2 | 0.00 | 0.00 | 0.00 | 67 | 1016.5 |
| 20260903105004 | 13 | 202 | 0.0 | 3.2 | 0.00 | 0.00 | 0.00 | 66 | 1016.6 |
| 20260903104503 | 13 | 198 | 0.0 | 3.2 | 0.00 | 0.00 | 0.00 | 68 | 1016.5 |
| 20260903104004 | 13 | 180 | 0.0 | 3.2 | 0.00 | 0.00 | 0.00 | 68 | 1016.5 |
| 20260903103503 | 13 | 180 | 1.6 | 4.8 | 0.00 | 0.00 | 0.00 | 68 | 1016.5 |
| 20260903103004 | 13 | 216 | 1.6 | 4.8 | 0.00 | 0.00 | 0.00 | 65 | 1016.4 |
| 20260903102503 | 13 | 207 | 0.0 | 3.2 | 0.00 | 0.00 | 0.00 | 69 | 1016.4 |
| 20260903102002 | 13 | 191 | 0.0 | 3.2 | 0.00 | 0.00 | 0.00 | 69 | 1016.5 |